(33) Polyhymnia
ephemeris date magn radius delta ra dec elong phase
Today16 Jun 202615.23.753 AU4.271 AU09h22m+16°26'53.3°12.5°
Opposition21 Mar 202713.63.779 AU2.783 AU12h02m+00°03'179.5°0.1°
(33) Polyhymnia - 2026-06-16
astro.vanbuitenen.nl


 
-1 year
-1 month
-1 day
Now
+1 day
+1 month
+1 year

The interactive orbit chart above shows the body's path through the solar system and its position at the given date. Green and blue lines are shown perpendicular to the ecliptic plane: Green if the path is above the ecliptic plane, blue if it is below. (Left-click and drag to rotate the view; Right-click and drag to move the view; Use scroll wheel to zoom in our out.)

The orbital elements of Polyhymnia are:

            e (Eccentricity)                : 0.3344915
            a (Semimajor axis)              : 2.8713350
            i (Inclination)                 : 1.85420
            Ω (Longitude of ascending node) : 8.12700
            ω (Argument of perihelion)      : 338.81363
            M (Mean anomaly)                : 147.60944
            Epoch                           : 2026 Jun 09

            L (Longitude of perihelion)     : -13.04926
            B (Latitude of perihelion)      : -0.67001
            P (Orbital period in years)     : 4.87            
        

The light curve chart below shows the estimated development of the minor planet's magnitude.


The all-sky chart below shows the path of the minor planet over the same period as the light curve. The current position is marked yellow.





The following chart shows the path of the minor planet in the next few days. The field of view is optimized for (~10x50) binoculars and finderscopes.




Ephemerides:
Date       Time       RA (2000)    DEC (2000)    delta   radius  elong  phase   PA    magn
2026-06-16 00:00 UT   09 22 14.7   +16 26 49     4.271    3.753   53.3   12.5   107   15.2 
2026-06-16 14:44 UT   09 22 48.7   +16 23 59     4.279    3.754   52.8   12.5   107   15.2 
2026-06-17 00:00 UT   09 23 10.1   +16 22 11     4.284    3.754   52.6   12.4   107   15.2 
2026-06-18 00:00 UT   09 24 05.9   +16 17 31     4.297    3.755   51.8   12.3   107   15.2 
2026-06-19 00:00 UT   09 25 02.0   +16 12 48     4.309    3.756   51.1   12.2   107   15.2 
2026-06-20 00:00 UT   09 25 58.4   +16 08 03     4.322    3.757   50.4   12.0   107   15.2 
2026-06-21 00:00 UT   09 26 55.1   +16 03 16     4.335    3.758   49.7   11.9   107   15.2 
2026-06-22 00:00 UT   09 27 52.2   +15 58 26     4.347    3.759   49.0   11.8   107   15.2 
2026-06-23 00:00 UT   09 28 49.5   +15 53 34     4.359    3.760   48.3   11.6   107   15.2 
2026-06-24 00:00 UT   09 29 47.1   +15 48 40     4.371    3.761   47.6   11.5   107   15.2 
2026-06-25 00:00 UT   09 30 44.9   +15 43 43     4.383    3.762   46.9   11.4   108   15.2 
2026-06-26 00:00 UT   09 31 43.1   +15 38 44     4.395    3.763   46.2   11.2   108   15.2 
2026-06-27 00:00 UT   09 32 41.5   +15 33 44     4.407    3.764   45.4   11.1   108   15.2 
2026-06-28 00:00 UT   09 33 40.2   +15 28 40     4.418    3.765   44.7   11.0   108   15.2 
2026-06-29 00:00 UT   09 34 39.1   +15 23 35     4.430    3.766   44.0   10.8   108   15.3 
2026-06-30 00:00 UT   09 35 38.3   +15 18 28     4.441    3.767   43.3   10.7   108   15.3 
2026-07-01 00:00 UT   09 36 37.7   +15 13 18     4.452    3.768   42.6   10.5   108   15.3 
2026-07-02 00:00 UT   09 37 37.3   +15 08 06     4.463    3.769   41.9   10.4   108   15.3 
2026-07-03 00:00 UT   09 38 37.2   +15 02 53     4.474    3.770   41.2   10.2   108   15.3 
2026-07-04 00:00 UT   09 39 37.2   +14 57 37     4.484    3.770   40.6   10.1   108   15.3 
2026-07-05 00:00 UT   09 40 37.5   +14 52 19     4.495    3.771   39.9    9.9   108   15.3 
2026-07-06 00:00 UT   09 41 38.1   +14 46 59     4.505    3.772   39.2    9.8   108   15.3 
2026-07-07 00:00 UT   09 42 38.8   +14 41 37     4.516    3.773   38.5    9.6   108   15.2 
2026-07-08 00:00 UT   09 43 39.7   +14 36 12     4.526    3.774   37.8    9.5   108   15.2 
2026-07-09 00:00 UT   09 44 40.8   +14 30 46     4.536    3.775   37.1    9.3   108   15.2 
2026-07-10 00:00 UT   09 45 42.1   +14 25 18     4.546    3.776   36.4    9.2   108   15.2 
2026-07-11 00:00 UT   09 46 43.6   +14 19 48     4.555    3.777   35.7    9.0   108   15.2 
2026-07-12 00:00 UT   09 47 45.3   +14 14 16     4.565    3.777   35.0    8.9   108   15.2 
2026-07-13 00:00 UT   09 48 47.2   +14 08 42     4.574    3.778   34.3    8.7   108   15.2 
2026-07-14 00:00 UT   09 49 49.2   +14 03 06     4.583    3.779   33.6    8.6   108   15.2 
2026-07-15 00:00 UT   09 50 51.4   +13 57 29     4.592    3.780   33.0    8.4   108   15.2 
2026-07-16 00:00 UT   09 51 53.7   +13 51 49     4.601    3.781   32.3    8.3   108   15.2 


    Terminology:
            
    delta:  distance between minor planet and earth in AU
    radius: distance between minor planet and sun in AU
    magn:   magnitude (brightness) estimate    
    ra:     right ascension in hours (24h = 360deg)
    dec:    declination in degrees
    elong:  elongation in degrees (angle sun-earth-minor planet)    
    phase:  phase angle in degrees (angle sun-minor planet-earth)        
    AU:     Astronomical Unit (mean distance between earth and sun: 149597870.7 km
    

Orbital elements provided by the MPC (Minor Planet Center).
Calculations by a modified version of AAPlus, a C# implementation of the AA+ project by PJ Naughter from the algorithms presented in the book "Astronomical Algorithms" by Jean Meeus.
NGC2000 dso catalog and star labels from VizieR as provided by the Strasbourg astronomical Data Center.
Tycho2 catalog from the ESO archive.